Location: Wingville
(42.9917°N, 90.4915°W)
Time: 07:25:52
(UTC+00:00)

YUBILEINY - Pass Details

Date: 01 July 2022
Orbit: 1478 x 1509 km, 82.5° (Epoch: 07 August)

Event Time Altitude Azimuth Distance (km) Brightness Sun altitude
Rises 09:42:58 0° 354° (N) 4,651 ? -7.2°
Reaches altitude 10° 09:46:00 10° 359° (N) 3,664 ? -6.8°
Maximum altitude 09:54:36 54° 76° (ENE) 1,768 ? -5.6°
Drops below altitude 10° 10:03:05 10° 152° (SSE) 3,622 ? -4.4°
Sets 10:06:02 0° 157° (SSE) 4,595 ? -3.9°
